Temperature
22 21 21 21 21 22 22 23 24 24 24 24 24 24 23 22 21 19 18 18 18 18 17 17 17 17 17 17 17 17 17 17 17 17 17 17 17 17 17 17 17 18 18 18 18 18 18 18 18
21 21 21 22 22 22 22 23 23 24 24 24 24 24 23 22 21 19 18 18 18 18 17 17 17 17 17 17 17 17 17 17 17 17 17 17 17 17 17 17 17 17 17 17 17 17 18 18 18
21 22 22 22 23 23 23 23 24 24 24 24 24 23 22 21 20 19 18 18 18 18 18 18 17 17 17 17 17 17 17 17 17 17 17 17 17 17 17 17 17 17 17 17 17 17 17 18 18
22 22 23 23 23 24 24 24 24 24 24 24 24 22 21 20 20 19 19 19 18 18 18 18 17 17 17 17 17 17 17 17 17 17 17 17 17 17 17 17 17 17 17 17 17 17 17 17 17
22 23 23 23 23 24 25 25 24 24 24 24 23 22 20 20 19 19 19 18 18 18 18 18 18 17 17 17 17 17 17 17 17 17 17 17 17 17 17 17 17 17 17 17 17 17 17 17 17
23 24 23 23 23 24 25 25 24 24 24 24 23 22 20 19 19 19 18 18 18 18 18 18 18 17 17 17 17 17 17 17 17 17 17 17 17 17 17 17 17 17 17 17 17 17 17 17 17
23 23 23 23 23 24 25 25 24 24 24 24 23 22 20 19 19 19 18 18 18 18 18 18 18 17 17 17 17 17 17 17 17 17 17 17 17 17 17 17 17 17 17 17 17 17 17 17 17
24 24 24 24 23 23 25 25 24 24 23 23 23 22 21 20 19 19 19 18 18 18 18 18 18 17 17 17 17 17 17 17 17 17 17 17 17 17 17 17 17 17 17 17 17 17 17 17 17
24 23 23 24 24 24 25 25 24 23 23 23 22 22 21 20 19 19 19 19 18 18 18 18 18 18 17 17 17 17 17 17 17 16 16 17 17 17 17 17 17 17 17 16 16 16 16 16 16
25 23 24 25 25 25 25 24 24 24 23 23 22 21 21 20 20 19 19 19 19 19 18 18 18 18 17 17 17 17 16 16 16 16 16 16 16 16 16 16 16 16 16 16 16 16 16 16 16
26 24 25 25 25 25 25 24 24 24 23 23 22 21 21 20 20 20 19 19 19 19 18 18 18 18 18 17 17 17 17 16 16 16 16 16 16 16 16 16 16 16 16 16 16 16 16 16 16
26 26 26 25 25 25 25 25 24 24 23 23 22 22 21 21 20 20 20 19 19 19 18 18 18 18 18 17 17 17 17 16 16 16 16 16 16 16 16 16 16 16 16 16 16 16 16 16 16
26 25 25 25 25 25 25 25 24 24 23 23 22 22 21 21 21 20 20 19 19 19 19 18 18 18 18 17 17 17 16 16 16 16 16 16 16 16 16 16 16 16 16 16 16 16 16 16 16
26 26 25 25 25 25 25 24 24 24 23 23 22 22 22 21 21 20 20 20 19 19 19 18 18 18 18 17 17 17 16 16 16 16 16 16 16 16 16 16 16 16 16 16 15 16 16 16 15
26 26 25 25 25 25 25 24 24 24 23 23 22 22 21 21 21 20 20 20 19 19 19 18 18 18 17 17 17 16 16 16 16 16 16 16 16 16 16 16 16 16 15 15 15 15 15 15 15
26 25 24 25 26 26 25 23 24 24 24 23 23 22 22 21 21 21 20 20 20 19 19 18 18 18 17 17 17 16 16 16 16 16 16 16 16 16 16 15 15 15 15 15 15 15 15 15 15
25 24 24 25 26 26 25 23 24 24 24 23 23 22 22 21 21 21 20 20 20 19 19 18 18 18 17 17 17 16 16 16 16 16 16 16 16 16 15 15 15 15 15 15 15 15 15 15 15
24 25 25 25 26 26 24 24 24 24 24 24 23 23 22 22 21 21 21 20 20 19 19 18 18 17 17 17 17 16 16 16 16 16 16 16 16 15 15 15 15 15 15 15 15 15 15 15 15
26 26 25 26 26 26 25 24 24 25 24 24 24 23 23 22 21 21 20 20 20 19 19 18 18 18 17 17 16 16 16 16 16 16 15 15 15 15 15 15 15 15 15 14 14 14 14 14 14
26 25 25 26 27 26 25 25 25 25 24 24 24 24 23 23 22 21 20 20 20 19 19 18 18 18 17 17 16 16 16 16 15 15 15 15 15 15 15 15 15 15 14 14 14 14 14 14 14
26 26 25 25 26 26 25 24 24 25 25 24 24 24 23 23 22 21 21 20 20 19 19 18 18 18 17 17 16 16 16 16 15 15 15 15 15 15 15 15 14 14 14 14 14 14 14 14 14
25 26 26 26 25 24 25 23 24 25 24 24 24 24 23 23 22 21 21 20 20 19 19 19 18 18 17 17 16 16 16 16 16 15 15 15 15 15 14 14 14 14 14 14 14 14 14 14 14
26 26 26 26 25 24 25 24 24 25 24 24 24 24 23 23 22 21 21 20 20 19 19 18 18 17 17 17 16 16 16 16 16 15 15 15 15 15 14 14 14 14 14 14 14 14 14 14 14
26 26 26 25 24 23 25 25 24 25 25 25 24 24 23 23 22 21 21 20 19 19 18 18 18 17 17 16 16 16 16 16 16 15 15 15 15 15 14 14 14 14 14 14 14 14 14 14 14
26 24 23 23 22 23 26 25 24 25 26 25 25 24 23 23 22 21 20 20 19 18 18 17 17 17 17 16 16 16 16 16 15 15 15 15 15 15 14 14 14 14 14 14 14 14 13 13 14
25 25 23 22 23 24 25 25 25 26 26 25 25 24 23 23 22 21 20 19 19 18 18 17 17 17 16 16 16 16 16 15 15 15 15 15 15 15 15 14 14 14 14 14 14 14 13 13 13
25 24 25 24 24 24 24 25 25 25 25 25 25 24 23 22 22 21 20 19 19 18 18 17 17 17 16 16 16 16 16 15 15 15 15 15 15 15 14 14 14 14 14 14 14 13 13 13 13
25 25 24 23 22 22 24 24 23 24 24 24 24 24 23 22 22 21 20 20 19 18 18 17 17 17 16 16 16 16 16 15 15 15 15 15 15 15 14 14 14 14 14 14 13 13 13 13 13
25 24 24 24 24 22 22 23 25 25 25 24 24 24 23 22 22 21 20 20 19 18 18 17 17 17 16 16 16 16 16 15 15 15 15 15 14 14 14 14 14 14 14 13 13 13 13 13 13
25 24 24 23 23 23 22 22 26 25 25 25 24 24 23 22 22 21 20 19 19 18 18 17 17 17 16 16 16 16 15 15 15 15 15 15 14 14 14 14 14 14 13 13 13 13 13 13 13
Wind_Speed
9 11 7 3 2 1 5 6 8 6 6 8 8 8 11 11 8 7 3 4 5 7 10 10 9 8 8 8 8 8 8 9 9 9 9 8 8 8 8 8 7 8 8 8 8 8 9 9 9
10 7 4 3 2 2 6 7 8 8 6 5 7 9 11 11 10 8 4 3 5 7 11 10 9 8 8 8 8 8 9 9 9 9 9 9 8 8 8 8 7 7 8 8 8 9 9 9 9
11 8 4 2 2 5 6 6 6 6 5 5 6 8 8 7 8 5 4 4 5 8 12 11 9 8 8 8 8 8 9 9 9 9 9 9 8 8 8 8 7 7 8 8 9 9 10 10 9
6 3 3 1 7 8 6 6 5 5 4 5 6 7 8 8 6 7 6 5 7 7 12 11 9 8 8 8 8 8 8 8 8 9 9 10 10 9 9 8 8 8 8 8 9 10 10 10 9
4 3 1 3 7 7 6 6 4 5 6 6 8 9 8 8 8 8 6 6 6 7 10 12 10 9 8 8 8 8 8 8 8 9 9 10 10 10 9 9 9 8 9 9 9 10 9 9 9
3 3 0 4 6 5 5 5 4 6 6 6 7 9 7 7 7 7 6 5 6 6 9 12 11 9 9 8 8 7 8 8 8 8 8 9 9 10 10 10 10 10 10 9 9 9 9 9 8
3 3 2 5 5 4 5 5 5 5 6 6 5 7 6 8 7 6 6 5 5 5 6 9 10 9 9 8 8 7 6 6 7 7 7 8 8 9 9 10 10 10 10 9 9 8 8 8 7
2 2 2 4 4 5 5 4 6 5 6 6 5 5 6 7 7 6 5 5 4 4 5 5 7 8 9 8 7 7 6 5 5 5 6 6 7 7 9 9 9 9 8 8 8 7 7 7 6
2 1 2 3 3 4 4 4 5 4 5 6 8 9 8 9 8 6 5 5 4 5 4 4 4 5 6 7 7 6 6 4 3 4 4 4 4 6 8 9 9 8 8 7 6 5 5 4 4
1 2 3 4 4 4 4 3 3 3 5 5 6 8 8 8 7 5 4 5 4 4 3 4 4 4 5 5 6 4 4 3 2 3 5 4 5 7 9 9 9 8 7 5 3 2 2 2 2
2 2 4 4 4 3 4 3 3 3 3 4 5 7 7 6 6 6 5 5 5 5 4 4 3 4 5 4 4 3 3 3 3 5 6 6 6 6 7 6 6 5 4 3 2 1 3 4 4
2 3 3 4 4 2 2 3 3 3 3 5 5 6 7 6 6 5 5 6 5 5 5 3 3 4 5 5 3 3 2 2 3 4 6 5 3 2 3 3 4 4 4 3 3 3 5 6 7
3 3 2 2 2 1 1 1 2 2 3 4 5 6 5 6 6 6 6 6 6 5 4 4 3 4 4 5 2 3 3 3 4 4 5 5 3 2 3 3 4 4 4 3 3 4 4 5 6
2 2 2 2 3 2 2 2 3 3 4 5 5 5 5 5 4 6 6 5 5 5 5 5 3 4 4 4 3 3 3 4 4 4 5 5 4 3 3 3 3 3 4 4 4 4 4 4 4
3 3 2 2 3 3 2 2 3 5 6 6 5 5 5 5 4 4 5 4 5 5 6 5 4 4 5 4 4 4 3 4 3 3 5 5 5 4 3 3 3 3 5 5 5 4 4 3 4
6 3 2 3 4 4 4 3 1 5 6 6 6 6 6 5 4 4 5 5 5 5 6 6 4 4 5 4 4 3 4 4 3 4 5 5 6 7 5 3 3 5 5 4 3 3 4 3 3
4 4 4 3 4 3 4 3 2 5 7 7 7 7 7 7 5 5 5 5 5 5 6 6 4 4 5 4 4 3 4 4 4 5 5 5 6 6 5 3 3 5 3 2 3 3 3 3 3
4 5 4 2 3 4 3 4 4 5 6 6 7 7 8 8 7 6 5 5 5 5 6 6 5 4 5 3 3 3 3 2 4 4 4 5 5 6 5 3 4 4 3 3 3 3 3 2 1
7 7 5 2 2 4 4 4 5 5 6 6 7 7 8 8 8 7 7 6 5 5 5 6 6 5 4 2 2 3 2 2 2 2 4 5 5 5 5 3 3 3 3 3 3 2 2 2 2
9 8 6 4 3 5 4 5 5 5 6 5 5 6 6 7 9 8 7 6 5 5 4 6 5 5 5 2 3 2 3 2 2 2 4 4 4 4 4 3 2 3 3 3 3 2 1 1 1
9 7 6 6 6 7 7 5 5 6 6 6 4 4 5 6 8 9 8 7 6 5 4 5 5 6 5 4 2 2 2 1 2 3 2 2 3 4 3 3 3 3 3 2 2 2 2 1 1
7 5 6 8 7 5 6 4 4 6 7 7 6 5 4 6 6 8 8 7 7 5 4 5 5 5 5 5 3 2 2 2 2 2 2 2 3 3 2 3 3 2 2 2 2 2 1 1 0
6 7 8 10 8 9 8 6 4 6 6 8 7 6 5 6 7 8 8 7 7 6 4 4 5 5 5 4 4 2 2 2 2 2 2 3 2 2 2 2 2 2 2 2 2 2 1 1 0
6 8 10 9 7 8 8 5 2 3 5 6 7 7 6 6 6 6 7 7 6 6 5 4 5 5 4 4 4 3 3 2 2 2 2 2 2 2 3 2 2 2 2 2 2 2 2 1 0
7 6 5 4 5 5 4 3 2 5 6 5 6 6 6 7 7 7 7 7 6 6 5 5 5 5 5 4 3 4 4 3 3 2 3 3 2 2 2 2 2 2 2 2 2 2 2 2 1
6 7 5 4 4 3 3 2 4 8 6 5 6 6 5 6 7 7 7 7 7 7 6 5 5 5 5 4 3 3 3 2 2 3 2 3 3 3 3 2 2 2 2 2 2 2 2 1 2
6 6 7 7 9 7 3 2 5 7 6 5 5 6 5 5 6 6 7 6 7 7 6 6 6 6 5 4 3 3 4 3 3 2 2 1 2 2 2 2 2 2 2 2 2 2 1 1 1
9 8 5 5 5 5 4 2 3 6 6 5 5 5 5 4 5 6 6 6 6 7 6 6 6 6 6 4 4 2 2 2 2 2 2 2 3 3 4 3 2 2 2 2 2 2 1 1 1
7 7 6 6 5 4 4 1 2 5 6 5 4 4 4 4 4 5 5 5 5 6 6 6 5 5 6 5 4 4 3 2 3 2 2 2 2 3 4 3 3 3 2 2 2 2 2 2 2
7 8 8 6 6 6 5 1 1 5 5 4 3 4 4 3 4 4 4 4 5 6 6 6 6 5 5 5 4 4 4 2 2 2 2 2 2 2 2 3 3 3 2 2 2 2 2 3 2
Wind_Direction
257 245 243 256 261 197 66 58 61 49 50 44 42 52 61 51 50 81 112 63 75 90 95 82 65 59 55 54 56 57 54 51 50 50 50 57 57 56 57 61 68 72 73 77 79 79 80 78 74
272 261 263 244 260 76 75 67 60 52 55 52 50 54 67 60 71 94 103 76 76 86 87 80 72 64 59 58 59 61 59 55 53 53 54 57 58 59 64 69 70 73 75 77 80 80 78 75 73
264 264 265 262 23 55 72 73 73 67 48 55 66 57 53 63 65 91 108 109 87 80 90 89 82 73 67 64 62 62 60 57 57 58 58 56 62 64 70 76 75 78 77 79 82 80 77 74 71
266 263 246 41 63 63 71 79 78 77 64 62 75 77 68 61 74 97 102 98 90 89 97 103 95 84 76 69 65 62 61 60 62 64 64 61 68 71 76 78 78 82 80 83 83 81 79 75 71
253 258 237 81 71 70 69 65 62 75 69 64 76 89 87 77 84 93 87 78 89 96 104 111 108 96 86 78 72 67 65 63 64 68 69 67 70 72 77 79 78 81 82 85 84 81 80 77 69
275 261 295 80 76 67 69 70 62 66 70 74 89 97 95 102 94 92 92 77 78 93 104 118 122 113 102 91 82 75 70 68 67 71 74 74 76 76 77 77 79 81 80 82 84 82 79 76 69
287 309 65 88 94 89 74 57 55 59 61 57 78 97 107 106 105 107 101 92 82 86 101 119 131 128 120 110 102 94 87 84 85 86 85 85 85 85 84 83 84 84 83 82 83 83 82 80 71
298 299 82 77 84 85 80 71 66 57 57 49 47 80 111 119 122 119 119 112 102 95 90 104 124 131 132 131 125 117 112 111 114 111 106 101 93 93 94 93 92 91 89 86 86 88 87 86 78
264 280 59 69 83 94 98 91 88 91 80 71 71 75 100 121 128 133 127 116 102 89 89 101 101 108 118 127 125 134 135 137 142 146 142 132 112 108 104 102 105 102 100 99 99 102 99 95 87
199 68 59 61 76 101 98 86 100 115 100 99 99 101 116 127 130 127 123 120 113 103 91 89 104 106 93 85 112 126 120 125 128 100 115 113 101 98 104 112 113 115 115 113 119 134 131 110 98
82 82 72 65 66 75 93 90 82 88 78 94 120 127 130 135 139 135 126 109 100 91 79 73 74 83 85 87 89 79 80 84 75 70 80 85 92 105 113 123 129 135 133 109 114 110 86 86 81
103 77 71 82 73 56 84 92 75 69 63 79 101 123 137 143 137 134 128 115 105 92 90 77 71 84 78 79 79 85 76 68 58 58 79 82 79 84 96 102 114 107 89 80 74 69 54 60 62
97 94 95 111 136 171 103 98 103 94 102 109 119 130 142 146 144 143 135 131 133 127 121 99 69 79 89 85 67 71 66 57 60 54 61 70 76 77 90 78 81 78 80 83 73 71 60 59 55
118 142 159 168 168 195 191 179 173 154 141 140 140 141 143 138 146 142 142 148 143 137 121 102 87 81 82 91 85 79 82 76 63 65 72 72 72 69 74 75 78 76 67 69 80 83 72 69 71
211 208 199 210 206 188 220 257 202 176 163 160 154 148 140 144 153 149 147 146 138 133 122 114 98 92 83 80 81 80 81 78 59 57 63 68 59 65 75 70 68 76 70 63 64 75 78 74 71
229 224 230 213 218 201 236 263 181 173 169 169 168 158 155 157 166 160 157 152 139 134 129 119 109 103 94 88 86 80 77 67 59 54 50 59 63 63 65 63 69 78 73 68 64 60 66 64 65
245 244 235 211 213 226 236 259 211 182 180 181 179 172 167 164 172 165 159 150 140 136 130 127 120 112 105 99 98 83 86 72 69 59 46 46 62 73 75 60 71 83 77 62 72 71 69 70 74
266 271 265 242 213 234 246 248 223 194 191 190 182 177 168 164 169 159 146 139 131 127 126 127 124 120 109 96 104 96 84 70 74 69 60 47 58 74 84 80 68 71 72 60 67 72 68 66 70
283 288 297 291 250 257 255 248 231 203 185 194 188 179 171 163 159 150 148 146 140 132 133 127 131 122 104 97 98 99 102 97 79 76 71 58 59 72 82 77 75 67 75 80 78 72 72 60 71
277 287 295 292 271 276 267 258 239 203 190 195 195 180 170 161 155 147 153 147 146 139 138 132 131 121 118 120 129 131 117 113 114 84 73 69 61 64 94 98 93 87 86 83 89 88 65 37 51
268 278 294 300 293 270 262 252 221 192 183 175 178 175 168 163 156 157 157 148 145 138 138 129 126 123 129 128 105 108 116 134 113 107 94 74 82 70 74 96 102 108 107 108 107 101 96 76 334
279 293 296 291 285 275 253 262 220 186 175 165 164 170 170 159 157 153 155 154 153 148 150 141 131 133 129 129 130 142 141 135 138 141 150 141 108 102 95 106 110 119 118 125 148 131 130 120 324
284 297 287 281 281 281 265 257 205 175 170 163 160 163 163 154 155 153 157 154 150 144 140 134 131 127 122 131 148 161 134 136 142 135 137 135 126 132 128 125 136 138 134 140 129 110 132 146 180
284 284 274 262 263 260 254 246 185 169 154 150 153 160 158 149 144 142 139 135 133 133 136 137 132 124 129 151 164 168 158 148 138 140 150 152 151 162 153 161 165 151 156 153 151 164 172 182 194
263 275 285 251 230 249 251 232 147 117 110 119 133 141 148 150 149 146 138 140 138 141 147 152 143 142 151 178 180 166 161 168 159 173 181 175 171 173 182 182 190 177 168 165 169 176 181 195 203
259 263 272 289 289 291 256 223 119 109 107 107 123 129 134 139 142 148 152 154 152 153 160 165 162 163 168 191 189 164 154 174 168 190 193 183 175 172 173 191 186 170 170 177 180 180 201 202 206
270 264 276 290 292 285 255 166 125 120 131 131 130 128 134 140 139 144 149 156 156 162 168 174 172 174 179 197 192 179 174 179 170 196 198 177 171 175 169 184 196 185 177 190 181 185 197 199 222
260 283 286 274 290 290 275 239 163 156 146 135 134 141 144 146 145 147 150 163 165 169 173 181 187 179 178 191 196 178 171 179 177 190 202 193 182 172 170 172 166 187 190 188 174 176 194 167 194
237 252 267 276 273 288 302 359 91 144 137 140 146 143 141 149 151 146 150 160 163 163 173 182 187 180 176 185 193 169 177 197 185 184 208 211 193 180 174 177 179 186 187 184 165 178 187 202 217
261 258 258 265 276 281 288 296 33 100 119 133 131 128 130 130 133 135 145 156 166 173 181 181 181 181 178 181 184 170 175 185 196 188 196 215 211 190 190 184 184 183 184 171 168 212 221 218 219
Height
1505 1505 1505 1507 1508 1510 1512 1509 1506 1507 1507 1508 1508 1508 1510 1514 1518 1529 1528 1526 1526 1525 1523 1521 1520 1520 1519 1519 1519 1518 1518 1518 1518 1518 1517 1517 1516 1516 1516 1517 1518 1519 1520 1520 1521 1522 1522 1523 1524
1505 1506 1507 1507 1509 1516 1517 1509 1509 1509 1509 1510 1510 1511 1512 1517 1521 1525 1526 1526 1526 1526 1524 1522 1521 1521 1520 1520 1519 1519 1519 1519 1519 1518 1518 1517 1517 1516 1517 1518 1519 1520 1520 1521 1522 1523 1524 1524 1525
1506 1507 1508 1506 1508 1514 1516 1509 1509 1510 1510 1510 1512 1514 1517 1521 1523 1525 1526 1527 1527 1526 1524 1524 1522 1522 1521 1521 1520 1520 1520 1520 1519 1519 1519 1518 1517 1517 1518 1519 1520 1521 1522 1523 1524 1524 1525 1525 1526
1508 1508 1507 1508 1511 1509 1508 1508 1509 1510 1511 1511 1512 1516 1521 1523 1525 1526 1527 1527 1527 1527 1525 1524 1524 1523 1522 1522 1522 1521 1521 1521 1521 1520 1520 1519 1519 1519 1519 1520 1521 1522 1523 1524 1525 1525 1526 1526 1527
1508 1508 1508 1512 1511 1508 1508 1509 1510 1510 1512 1512 1514 1518 1523 1525 1526 1527 1527 1528 1527 1527 1526 1525 1525 1525 1524 1523 1523 1523 1523 1522 1522 1521 1521 1521 1521 1521 1521 1521 1522 1523 1524 1525 1526 1526 1527 1528 1528
1509 1506 1512 1517 1514 1510 1509 1510 1511 1511 1513 1514 1516 1519 1524 1526 1527 1527 1528 1528 1528 1528 1527 1527 1526 1526 1525 1525 1524 1524 1524 1524 1523 1523 1523 1523 1523 1523 1523 1524 1524 1525 1525 1526 1527 1528 1528 1529 1529
1510 1508 1511 1512 1514 1513 1511 1512 1512 1513 1514 1515 1517 1519 1524 1526 1527 1528 1528 1529 1529 1529 1528 1528 1527 1527 1527 1526 1526 1526 1526 1525 1525 1525 1525 1525 1525 1525 1525 1525 1526 1526 1527 1528 1528 1529 1530 1530 1531
1509 1509 1511 1512 1515 1515 1512 1513 1515 1515 1517 1518 1518 1520 1524 1526 1527 1528 1528 1529 1529 1530 1530 1529 1529 1528 1528 1528 1528 1527 1527 1527 1527 1527 1526 1527 1527 1527 1527 1527 1528 1528 1529 1529 1530 1531 1531 1532 1532
1509 1512 1515 1513 1514 1514 1512 1514 1516 1517 1518 1519 1520 1522 1524 1526 1527 1528 1529 1530 1530 1530 1530 1530 1530 1530 1530 1529 1529 1529 1529 1529 1529 1529 1528 1528 1528 1529 1529 1529 1529 1530 1530 1531 1531 1532 1533 1533 1534
1509 1514 1513 1510 1510 1511 1513 1514 1515 1516 1518 1519 1521 1523 1525 1526 1527 1528 1529 1530 1531 1531 1531 1531 1531 1531 1531 1531 1530 1530 1530 1530 1530 1530 1530 1530 1530 1531 1531 1531 1531 1532 1532 1532 1533 1534 1534 1534 1535
1508 1511 1510 1510 1511 1512 1513 1514 1515 1516 1518 1519 1521 1523 1525 1526 1527 1528 1529 1530 1531 1531 1532 1532 1532 1532 1532 1532 1532 1532 1532 1531 1532 1532 1532 1532 1532 1532 1532 1532 1533 1533 1533 1534 1535 1535 1535 1536 1536
1509 1509 1510 1512 1513 1514 1514 1515 1516 1517 1519 1520 1521 1523 1524 1526 1527 1528 1529 1530 1531 1532 1532 1532 1533 1532 1532 1532 1532 1532 1533 1532 1533 1533 1533 1533 1533 1533 1534 1534 1534 1534 1535 1535 1536 1536 1537 1537 1537
1510 1511 1512 1513 1514 1514 1514 1515 1516 1517 1519 1520 1521 1523 1524 1525 1527 1528 1529 1530 1531 1532 1532 1533 1533 1533 1533 1533 1533 1533 1533 1533 1533 1534 1534 1534 1534 1534 1535 1535 1535 1535 1536 1536 1537 1537 1537 1538 1538
1510 1511 1511 1512 1513 1513 1513 1514 1515 1517 1518 1519 1521 1522 1524 1525 1527 1528 1529 1530 1531 1531 1532 1533 1533 1533 1533 1533 1533 1534 1534 1534 1534 1534 1534 1534 1535 1535 1535 1535 1536 1536 1536 1537 1537 1538 1538 1538 1539
1510 1510 1511 1511 1511 1512 1513 1515 1513 1515 1516 1518 1520 1522 1523 1525 1526 1527 1528 1530 1530 1531 1532 1532 1533 1533 1533 1534 1534 1534 1534 1534 1535 1535 1535 1535 1535 1535 1536 1536 1536 1536 1537 1537 1538 1538 1539 1539 1539
1508 1511 1516 1511 1509 1510 1515 1519 1512 1512 1514 1516 1518 1520 1522 1524 1525 1526 1528 1529 1530 1531 1531 1532 1533 1533 1533 1534 1534 1534 1534 1534 1535 1535 1535 1535 1535 1535 1535 1536 1536 1537 1537 1538 1538 1538 1539 1539 1540
1511 1516 1515 1511 1507 1507 1510 1515 1511 1510 1512 1514 1516 1518 1520 1522 1524 1525 1526 1528 1529 1530 1531 1532 1533 1533 1533 1534 1534 1534 1535 1535 1535 1535 1535 1536 1536 1536 1536 1536 1537 1537 1537 1537 1538 1539 1539 1539 1540
1516 1513 1510 1510 1505 1505 1509 1510 1508 1508 1509 1511 1513 1515 1517 1519 1522 1523 1525 1527 1528 1529 1530 1531 1532 1533 1533 1534 1534 1534 1535 1535 1535 1535 1536 1536 1536 1536 1536 1536 1536 1537 1537 1537 1538 1539 1539 1539 1540
1506 1507 1508 1506 1501 1504 1507 1507 1505 1505 1506 1508 1510 1512 1514 1517 1520 1522 1524 1526 1527 1529 1530 1530 1531 1532 1532 1533 1534 1534 1534 1535 1535 1536 1536 1536 1536 1536 1536 1536 1536 1536 1537 1537 1538 1538 1539 1539 1539
1505 1507 1507 1503 1499 1501 1504 1504 1501 1502 1503 1505 1507 1509 1512 1514 1517 1520 1522 1524 1526 1528 1529 1530 1531 1531 1531 1532 1533 1533 1534 1534 1535 1536 1536 1536 1536 1536 1536 1536 1536 1536 1537 1537 1537 1538 1539 1539 1540
1505 1506 1506 1505 1501 1499 1502 1506 1501 1499 1501 1503 1506 1508 1510 1513 1515 1518 1520 1523 1525 1526 1528 1529 1530 1530 1531 1532 1532 1533 1534 1534 1535 1535 1535 1536 1536 1536 1536 1536 1536 1536 1537 1537 1537 1538 1538 1539 1540
1507 1500 1500 1502 1507 1508 1504 1517 1503 1497 1499 1501 1504 1506 1508 1511 1513 1516 1519 1521 1523 1525 1527 1528 1529 1529 1530 1531 1531 1532 1533 1533 1534 1534 1535 1535 1535 1536 1536 1536 1536 1536 1536 1537 1537 1538 1538 1539 1539
1502 1498 1499 1500 1504 1507 1501 1508 1504 1494 1499 1499 1501 1504 1507 1509 1512 1514 1517 1519 1522 1524 1525 1527 1528 1528 1529 1530 1531 1531 1532 1533 1533 1534 1534 1534 1535 1535 1535 1535 1536 1536 1536 1537 1537 1537 1538 1539 1539
1498 1499 1499 1499 1505 1516 1501 1504 1506 1495 1495 1495 1498 1502 1505 1508 1510 1513 1515 1518 1520 1522 1524 1525 1526 1527 1528 1528 1529 1530 1531 1532 1533 1533 1533 1534 1534 1534 1534 1535 1535 1535 1536 1536 1536 1537 1538 1538 1538
1499 1508 1518 1519 1519 1512 1492 1497 1500 1489 1489 1492 1496 1500 1503 1506 1509 1512 1514 1516 1518 1520 1522 1523 1525 1525 1526 1527 1528 1529 1530 1531 1531 1532 1532 1532 1533 1533 1533 1534 1534 1534 1535 1535 1536 1536 1537 1537 1538
1500 1504 1520 1528 1520 1508 1494 1499 1494 1486 1490 1493 1496 1499 1502 1505 1507 1510 1512 1514 1516 1518 1520 1521 1523 1524 1525 1526 1527 1528 1528 1529 1530 1530 1531 1531 1531 1532 1532 1532 1533 1533 1534 1534 1534 1535 1536 1537 1537
1501 1502 1498 1507 1507 1510 1501 1494 1490 1487 1490 1493 1495 1498 1501 1504 1506 1508 1510 1513 1514 1516 1518 1519 1521 1522 1523 1524 1525 1526 1527 1527 1528 1528 1529 1530 1530 1530 1530 1531 1531 1532 1532 1533 1533 1534 1534 1535 1536
1497 1497 1502 1509 1519 1520 1506 1499 1500 1493 1492 1493 1495 1498 1500 1503 1504 1506 1509 1511 1513 1514 1516 1517 1519 1520 1521 1522 1523 1524 1525 1525 1526 1527 1527 1527 1528 1528 1529 1529 1529 1529 1529 1531 1531 1532 1533 1534 1534
1498 1500 1501 1503 1504 1517 1520 1510 1487 1488 1489 1491 1494 1496 1499 1501 1503 1505 1507 1509 1511 1512 1514 1515 1517 1518 1519 1520 1521 1522 1523 1523 1524 1524 1525 1525 1526 1526 1526 1527 1527 1528 1528 1529 1529 1530 1531 1532 1532
1492 1496 1500 1510 1509 1504 1511 1510 1484 1485 1487 1490 1492 1495 1498 1500 1502 1504 1505 1507 1509 1510 1512 1513 1514 1515 1516 1518 1519 1520 1520 1521 1522 1522 1522 1523 1524 1524 1525 1525 1526 1526 1527 1527 1528 1528 1529 1530 1530